Regional Weather Roundup
Issued by NWS

Home | Current Version | Previous Version | Graphics & Text | Print | Product List | Glossary On
Versions: 1 2 3 4 5 6 7 8 9 10 11 12 13 14 15 16 17 18 19 20 21 22 23 24 25 26 27 28 29 30 31 32 33 34 35 36 37 38 39 40 41 42 43 44 45 46 47 48 49 50
000
ASUS43 KFSD 250910
RWRSD

WEATHER ROUNDUP FOR SOUTH DAKOTA
NATIONAL WEATHER SERVICE SIOUX FALLS SD
300 AM CST SUN FEB 25 2018

NOTE: "FAIR" INDICATES FEW OR NO CLOUDS BELOW 12,000 FEET WITH NO
SIGNIFICANT WEATHER AND/OR OBSTRUCTIONS TO VISIBILITY.


SDZ001>005-009-010-012>017-251000-
NORTHWEST AND NORTH CENTRAL SOUTH DAKOTA

CITY           SKY/WX    TMP DP  RH WIND       PRES   REMARKS
BUFFALO          N/A     11   3  70 W20       29.62R WCI  -7
FAITH            N/A     13   7  77 W17       29.67S WCI  -4
MOBRIDGE       MOCLDY    17   9  70 N9        29.62R WCI   6
$$

SDZ012>016-024>037-041>051-057-063-072>074-251000-
SOUTHWEST AND SOUTH CENTRAL SOUTH DAKOTA

CITY           SKY/WX    TMP DP  RH WIND       PRES   REMARKS
RAPID CTY ARPT CLEAR     12   1  61 CALM      29.71S
PIERRE         CLEAR     19  11  70 W22       29.70R WCI   2
CUSTER         CLEAR     15  -1  49 W10       29.64S WCI   2
ELLSWORTH AFB  CLEAR     14   3  61 NW5       29.70S WCI   6
PHILIP         PTCLDY    15   6  67 W3        29.74F
PINE RIDGE     MOCLDY   N/A N/A N/A MISG      29.79R
SPEARFISH        N/A     23   7  50 W10       29.70S WCI  12
WINNER         FAIR      24  10  55 W17       29.73S WCI  11
$$

SDZ004>011-016>023-039-040-251000-
NORTHEAST SOUTH DAKOTA

CITY           SKY/WX    TMP DP  RH WIND       PRES   REMARKS
ABERDEEN       CLEAR      8   4  83 W8        29.61F WCI  -4
WATERTOWN      CLEAR      7   3  84 W17       29.57F WCI -12
BROOKINGS      CLEAR      7   4  87 SW10      29.63F WCI  -8
SISSETON         N/A     14   8  77 W17       29.54F WCI  -3
$$

SDZ017-020-022-023-036>040-048>070-251000-
SOUTHEAST SOUTH DAKOTA

CITY           SKY/WX    TMP DP  RH WIND       PRES   REMARKS
SIOUX FALLS    CLEAR     11   5  77 W15G21    29.70R WCI  -5
HURON          CLEAR     11   6  81 W10       29.68S WCI  -3
CHAMBERLAIN    CLEAR     19  12  72 SW12      29.72R WCI   7
MITCHELL       CLEAR     16   9  74 W15       29.72S WCI   1
YANKTON        CLOUDY    22  13  68 SW14      29.76R WCI   9
$$

ABBREVIATIONS USED IN REMARKS
   TC - TEMPERATURE IN CELSIUS
  WCI - WIND CHILL INDEX
   HX - HEAT INDEX
  VSB - VISIBILITY




USA.gov is the U.S. government's official web portal to all federal, state and local government web resources and services.